| time (UTC) | temp F | wind direction | speed MPH | gust MPH | rain 1hr in | rain 24hr in | rain mn in | humidity % | barometer mb |
| 20260507003051 | 66 | 333 | 2.0 | 7.0 | 0.00 | 0.00 | 0.00 | 72 | 1017.8 |
| 20260507001600 | 66 | 295 | 1.0 | 5.0 | 0.00 | 0.00 | 0.00 | 71 | 1017.8 |
| 20260507000027 | 66 | 278 | 2.0 | 6.0 | 0.00 | 0.00 | 0.00 | 70 | 1017.8 |
| 20260506234511 | 67 | 294 | 1.0 | 4.0 | 0.00 | 0.00 | 0.00 | 69 | 1017.7 |
| 20260506231539 | 67 | 212 | 0.0 | 4.0 | 0.00 | 0.00 | 0.00 | 68 | 1017.8 |
| 20260506230047 | 66 | 115 | 1.0 | 4.0 | 0.00 | 0.00 | 0.00 | 69 | 1018.0 |
| 20260506224537 | 66 | 219 | 0.0 | 3.0 | 0.00 | 0.00 | 0.00 | 69 | 1018.2 |
| 20260506223021 | 66 | 49 | 0.0 | 4.0 | 0.00 | 0.00 | 0.00 | 69 | 1018.4 |
| 20260506221530 | 66 | 219 | 0.0 | 4.0 | 0.00 | 0.00 | 0.00 | 71 | 1018.5 |
| 20260506220029 | 65 | 310 | 1.0 | 3.0 | 0.00 | 0.00 | 0.00 | 71 | 1018.5 |
| 20260506214529 | 64 | 195 | 0.0 | 1.0 | 0.00 | 0.00 | 0.00 | 74 | 1018.4 |
| 20260506213014 | 64 | 10 | 0.0 | 3.0 | 0.00 | 0.00 | 0.00 | 74 | 1018.6 |
| 20260506211603 | 64 | 283 | 0.0 | 3.0 | 0.00 | 0.00 | 0.00 | 75 | 1018.9 |
| 20260506210047 | 63 | 309 | 0.0 | 2.0 | 0.00 | 0.00 | 0.00 | 74 | 1018.9 |
| 20260506204536 | 63 | 264 | 0.0 | 2.0 | 0.00 | 0.00 | 0.00 | 75 | 1018.8 |
| 20260506203013 | 62 | 311 | 0.0 | 4.0 | 0.00 | 0.00 | 0.00 | 77 | 1018.9 |
| 20260506201516 | 62 | 245 | 0.0 | 2.0 | 0.00 | 0.00 | 0.00 | 77 | 1018.9 |
| 20260506200055 | 61 | 306 | 0.0 | 3.0 | 0.00 | 0.00 | 0.00 | 78 | 1019.0 |
| 20260506194537 | 61 | 222 | 0.0 | 3.0 | 0.00 | 0.00 | 0.00 | 77 | 1019.2 |
| 20260506193017 | 61 | 265 | 0.0 | 3.0 | 0.00 | 0.00 | 0.00 | 78 | 1019.2 |
| 20260506191600 | 61 | 2 | 1.0 | 3.0 | 0.00 | 0.00 | 0.00 | 77 | 1019.0 |
| 20260506190049 | 61 | 243 | 0.0 | 1.0 | 0.00 | 0.00 | 0.00 | 78 | 1019.1 |
| 20260506184528 | 60 | 294 | 0.0 | 2.0 | 0.00 | 0.00 | 0.00 | 79 | 1019.1 |
| 20260506183005 | 60 | 250 | 0.0 | 0.0 | 0.00 | 0.00 | 0.00 | 79 | 1019.1 |
| 20260506181624 | 59 | 296 | 0.0 | 1.0 | 0.00 | 0.00 | 0.00 | 80 | 1019.1 |
| 20260506180037 | 59 | 271 | 0.0 | 1.0 | 0.00 | 0.00 | 0.00 | 81 | 1019.1 |
| 20260506174521 | 59 | 283 | 0.0 | 2.0 | 0.00 | 0.00 | 0.00 | 80 | 1019.0 |
| 20260506173125 | 58 | 276 | 0.0 | 0.0 | 0.00 | 0.00 | 0.00 | 81 | 1018.8 |
| 20260506171549 | 58 | 293 | 0.0 | 2.0 | 0.00 | 0.00 | 0.00 | 80 | 1018.8 |
| 20260506170027 | 58 | 262 | 0.0 | 3.0 | 0.00 | 0.00 | 0.00 | 81 | 1018.9 |
| 20260506164503 | 58 | 280 | 0.0 | 3.0 | 0.00 | 0.00 | 0.00 | 80 | 1018.8 |
| 20260506163055 | 59 | 219 | 0.0 | 2.0 | 0.00 | 0.00 | 0.00 | 80 | 1018.6 |
| 20260506161536 | 59 | 318 | 0.0 | 2.0 | 0.00 | 0.00 | 0.00 | 79 | 1018.5 |
| 20260506160041 | 59 | 138 | 0.0 | 1.0 | 0.00 | 0.00 | 0.00 | 80 | 1018.2 |
| 20260506154525 | 56 | 116 | 0.0 | 2.0 | 0.00 | 0.00 | 0.00 | 83 | 1018.2 |
| 20260506153105 | 55 | 271 | 0.0 | 1.0 | 0.00 | 0.00 | 0.00 | 84 | 1018.9 |
| 20260506151551 | 55 | 273 | 0.0 | 3.0 | 0.00 | 0.00 | 0.00 | 84 | 1019.0 |
| 20260506150025 | 55 | 281 | 1.0 | 4.0 | 0.00 | 0.00 | 0.00 | 84 | 1018.8 |
| 20260506144610 | 56 | 265 | 1.0 | 4.0 | 0.00 | 0.00 | 0.00 | 84 | 1018.6 |
| 20260506143047 | 56 | 280 | 0.0 | 2.0 | 0.00 | 0.00 | 0.00 | 84 | 1018.1 |
| 20260506141531 | 56 | 292 | 0.0 | 2.0 | 0.00 | 0.00 | 0.00 | 84 | 1018.0 |
| 20260506140016 | 56 | 276 | 0.0 | 0.0 | 0.00 | 0.00 | 0.00 | 84 | 1018.1 |
| 20260506134603 | 56 | 276 | 0.0 | 0.0 | 0.00 | 0.00 | 0.00 | 84 | 1017.8 |
| 20260506133009 | 56 | 276 | 0.0 | 0.0 | 0.00 | 0.00 | 0.00 | 84 | 1017.7 |
| 20260506131606 | 56 | 277 | 0.0 | 0.0 | 0.00 | 0.00 | 0.00 | 84 | 1017.5 |
| 20260506130052 | 56 | 277 | 0.0 | 0.0 | 0.00 | 0.00 | 0.00 | 84 | 1017.4 |
| 20260506124531 | 56 | 277 | 0.0 | 0.0 | 0.00 | 0.00 | 0.00 | 84 | 1017.3 |
| 20260506123011 | 56 | 277 | 0.0 | 0.0 | 0.00 | 0.00 | 0.00 | 84 | 1017.4 |
| 20260506121553 | 56 | 277 | 0.0 | 2.0 | 0.00 | 0.00 | 0.00 | 84 | 1017.4 |
| 20260506120003 | 56 | 282 | 0.0 | 2.0 | 0.00 | 0.00 | 0.00 | 84 | 1017.3 |
| 20260506114541 | 56 | 277 | 0.0 | 2.0 | 0.00 | 0.00 | 0.00 | 84 | 1017.1 |
| 20260506113032 | 56 | 280 | 0.0 | 3.0 | 0.00 | 0.00 | 0.00 | 83 | 1017.0 |
| 20260506111511 | 56 | 295 | 0.0 | 4.0 | 0.00 | 0.00 | 0.00 | 83 | 1016.8 |
| 20260506110016 | 56 | 286 | 0.0 | 5.0 | 0.00 | 0.00 | 0.00 | 83 | 1016.6 |
| 20260506104503 | 57 | 283 | 0.0 | 1.0 | 0.00 | 0.00 | 0.00 | 83 | 1016.4 |
| 20260506103048 | 57 | 272 | 0.0 | 2.0 | 0.00 | 0.00 | 0.00 | 83 | 1016.2 |
| 20260506101533 | 57 | 290 | 0.0 | 1.0 | 0.00 | 0.00 | 0.00 | 82 | 1016.0 |
| 20260506100006 | 57 | 276 | 0.0 | 1.0 | 0.00 | 0.00 | 0.00 | 82 | 1016.0 |
| 20260506094501 | 57 | 285 | 0.0 | 1.0 | 0.00 | 0.00 | 0.00 | 82 | 1015.9 |
| 20260506093053 | 57 | 295 | 0.0 | 3.0 | 0.00 | 0.00 | 0.00 | 82 | 1015.8 |
| 20260506091504 | 58 | 292 | 0.0 | 0.0 | 0.00 | 0.00 | 0.00 | 81 | 1015.9 |
| 20260506090055 | 58 | 294 | 0.0 | 3.0 | 0.00 | 0.00 | 0.00 | 81 | 1015.7 |
| 20260506084531 | 58 | 282 | 0.0 | 2.0 | 0.00 | 0.00 | 0.00 | 81 | 1015.7 |
| 20260506083005 | 58 | 281 | 0.0 | 2.0 | 0.00 | 0.00 | 0.00 | 81 | 1015.8 |
| 20260506081555 | 58 | 290 | 0.0 | 3.0 | 0.00 | 0.00 | 0.00 | 81 | 1015.7 |
| 20260506073007 | 59 | 290 | 0.0 | 0.0 | 0.00 | 0.00 | 0.00 | 82 | 1015.3 |
| 20260506071549 | 59 | 290 | 0.0 | 1.0 | 0.00 | 0.00 | 0.00 | 82 | 1015.2 |
| 20260506061559 | 60 | 129 | 0.0 | 0.0 | 0.00 | 0.00 | 0.00 | 81 | 1014.9 |
| 20260506044615 | 61 | 129 | 0.0 | 0.0 | 0.00 | 0.00 | 0.00 | 78 | 1014.4 |
| 20260506043050 | 61 | 129 | 0.0 | 1.0 | 0.00 | 0.00 | 0.00 | 77 | 1014.3 |
| 20260506041532 | 61 | 129 | 0.0 | 1.0 | 0.00 | 0.00 | 0.00 | 76 | 1014.1 |
| 20260506040018 | 61 | 127 | 0.0 | 0.0 | 0.00 | 0.00 | 0.00 | 76 | 1014.0 |
| 20260506034605 | 61 | 82 | 0.0 | 0.0 | 0.00 | 0.00 | 0.00 | 76 | 1013.8 |
| 20260506033046 | 61 | 76 | 0.0 | 1.0 | 0.00 | 0.00 | 0.00 | 76 | 1013.6 |
| 20260506031533 | 62 | 77 | 0.0 | 2.0 | 0.00 | 0.00 | 0.00 | 75 | 1013.5 |
| 20260506030036 | 62 | 38 | 0.0 | 2.0 | 0.00 | 0.00 | 0.00 | 74 | 1013.5 |
| 20260506024528 | 62 | 134 | 0.0 | 2.0 | 0.00 | 0.00 | 0.00 | 73 | 1013.3 |
| 20260506023059 | 62 | 321 | 0.0 | 0.0 | 0.00 | 0.00 | 0.00 | 73 | 1013.3 |
| 20260506021530 | 63 | 321 | 0.0 | 1.0 | 0.00 | 0.00 | 0.00 | 72 | 1013.2 |
| 20260506020015 | 63 | 319 | 0.0 | 1.0 | 0.00 | 0.00 | 0.00 | 72 | 1013.2 |
| 20260506014538 | 62 | 286 | 0.0 | 1.0 | 0.00 | 0.00 | 0.00 | 72 | 1013.3 |
| 20260506013022 | 62 | 274 | 0.0 | 1.0 | 0.00 | 0.00 | 0.00 | 72 | 1013.2 |
| 20260506011604 | 62 | 281 | 0.0 | 2.0 | 0.00 | 0.00 | 0.00 | 73 | 1013.3 |
| 20260506010048 | 63 | 346 | 0.0 | 0.0 | 0.00 | 0.00 | 0.00 | 73 | 1013.2 |
| 20260506004534 | 63 | 311 | 0.0 | 2.0 | 0.00 | 0.00 | 0.00 | 72 | 1013.4 |